Location: Gro�sch�nbrunn
(49.5760°N, 11.8868°E)
Time: 08:56:14
(UTC+00:00)

N. Korean satellite - Pass Details

Date: 27 November 2020
Orbit: 453 x 502 km, 97.2° (Epoch: 16 January)

Event Time Altitude Azimuth Distance (km) Brightness Sun altitude
Rises 16:32:36 0° 196° (SSW) 2,455 10.7 -11.7°
Reaches altitude 10° 16:34:54 10° 211° (SSW) 1,591 9.9 -12.1°
Maximum altitude 16:37:41 23° 266° (W) 1,013 9.2 -12.5°
Drops below altitude 10° 16:40:31 10° 321° (NW) 1,614 9.5 -13.0°
Sets 16:42:53 0° 336° (NNW) 2,502 10.3 -13.3°
